FW9451 Weather Reports


Display with metric or nautical units.
time (UTC)temp
F
wind
direction
speed
MPH
gust
MPH
rain 1hr
in
rain 24hr
in
rain mn
in
humidity
%
barometer
mb
20260506061551 59 209 6.0 14.0 0.00 0.01 0.00 71 1008.8
20260506044559 59 156 5.0 14.0 0.00 0.01 0.00 72 1008.9
20260506043050 57 125 2.0 5.0 0.00 0.01 0.00 75 1008.7
20260506041556 59 146 3.0 7.0 0.00 0.01 0.00 72 1009.0
20260506040101 59 167 3.0 9.0 0.00 0.01 0.00 72 1009.0
20260506034554 60 150 2.0 8.0 0.00 0.01 0.01 70 1008.8
20260506033052 63 151 3.0 9.0 0.00 0.01 0.01 67 1008.8
20260506031601 64 192 4.0 10.0 0.00 0.01 0.01 67 1008.6
20260506030112 64 211 3.0 11.0 0.00 0.01 0.01 67 1008.7
20260506024549 64 162 5.0 12.0 0.00 0.01 0.01 66 1008.8
20260506023050 63 169 5.0 11.0 0.00 0.01 0.01 67 1009.0
20260506021548 63 176 3.0 8.0 0.00 0.01 0.01 67 1009.1
20260506020051 64 190 4.0 8.0 0.00 0.01 0.01 66 1009.1
20260506014555 64 187 3.0 9.0 0.00 0.01 0.01 66 1009.1
20260506013051 64 183 3.0 8.0 0.00 0.01 0.01 67 1009.1
20260506011556 64 169 3.0 8.0 0.00 0.01 0.01 68 1009.3
20260506010054 64 183 4.0 10.0 0.00 0.01 0.01 68 1009.1
20260506004625 63 153 4.0 9.0 0.01 0.01 0.01 70 1008.7
20260506003056 63 141 3.0 8.0 0.01 0.01 0.01 74 1008.6
20260506001556 63 192 3.0 5.0 0.01 0.01 0.01 76 1008.5
20260506000051 62 169 3.0 6.0 0.01 0.01 0.01 77 1007.2
20260505234612 63 283 2.0 8.0 0.00 0.00 0.00 76 1006.7
20260505233055 66 349 3.0 9.0 0.00 0.00 0.00 67 1007.8
20260505231550 66 330 4.0 10.0 0.00 0.00 0.00 66 1007.6
20260505230054 66 295 5.0 23.0 0.00 0.00 0.00 63 1007.8
20260505224549 66 254 11.0 18.0 0.00 0.00 0.00 58 1006.9
20260505223102 67 207 9.0 25.0 0.00 0.00 0.00 57 1005.3
20260505221559 67 191 9.0 26.0 0.00 0.00 0.00 56 1005.0
20260505220124 68 171 7.0 28.0 0.00 0.00 0.00 56 1004.9
20260505214608 69 180 11.0 28.0 0.00 0.00 0.00 54 1004.9
20260505213050 70 165 13.0 26.0 0.00 0.00 0.00 52 1004.7
20260505211608 71 192 8.0 22.0 0.00 0.00 0.00 52 1004.6
20260505210044 71 232 12.0 25.0 0.00 0.00 0.00 51 1004.6
20260505204550 73 212 11.0 23.0 0.00 0.00 0.00 50 1004.6
20260505203052 73 221 11.0 32.0 0.00 0.00 0.00 50 1004.7
20260505201601 73 181 11.0 29.0 0.00 0.00 0.00 51 1004.7
20260505194600 74 184 12.0 24.0 0.00 0.00 0.00 49 1005.0
20260505193047 74 175 9.0 26.0 0.00 0.00 0.00 47 1005.2
20260505191553 73 208 13.0 29.0 0.00 0.00 0.00 49 1005.3
20260505190052 72 221 7.0 23.0 0.00 0.00 0.00 51 1005.9
20260505184556 74 143 6.0 24.0 0.00 0.00 0.00 50 1005.9
20260505183051 73 146 11.0 23.0 0.00 0.00 0.00 49 1006.0
20260505181553 74 132 9.0 20.0 0.00 0.00 0.00 48 1006.1
20260505180050 75 182 7.0 21.0 0.00 0.00 0.00 47 1006.0
20260505174553 75 176 11.0 22.0 0.00 0.00 0.00 46 1006.0
20260505173053 76 248 6.0 22.0 0.00 0.00 0.00 44 1006.3
20260505171550 76 218 7.0 19.0 0.00 0.00 0.00 45 1006.7
20260505170051 75 229 11.0 17.0 0.00 0.00 0.00 45 1006.8
20260505164609 74 190 9.0 21.0 0.00 0.00 0.00 46 1007.0
20260505163049 74 241 10.0 20.0 0.00 0.00 0.00 47 1007.5
20260505161554 73 217 8.0 19.0 0.00 0.00 0.00 48 1007.7
20260505153050 71 238 9.0 23.0 0.00 0.00 0.00 48 1008.5
20260505151548 70 209 11.0 20.0 0.00 0.00 0.00 50 1008.7
20260505124607 60 266 8.0 17.0 0.00 0.00 0.00 61 1008.8
20260505123105 58 221 5.0 9.0 0.00 0.00 0.00 63 1008.7
20260505121555 57 168 8.0 15.0 0.00 0.00 0.00 65 1008.7
20260505120051 56 172 7.0 17.0 0.00 0.00 0.00 65 1009.0
20260505114552 56 192 8.0 15.0 0.00 0.00 0.00 66 1009.2
20260505113054 55 218 9.0 16.0 0.00 0.00 0.00 66 1009.1
20260505111549 54 235 9.0 17.0 0.00 0.00 0.00 67 1009.1
20260505101554 53 182 6.0 13.0 0.00 0.00 0.00 68 1009.2
20260505100056 53 236 6.0 10.0 0.00 0.00 0.00 67 1009.2
20260505094555 53 207 6.0 11.0 0.00 0.00 0.00 67 1009.2
20260505093100 53 209 5.0 11.0 0.00 0.00 0.00 66 1009.2
20260505091606 54 215 5.0 11.0 0.00 0.00 0.00 65 1009.2
20260505090054 54 207 5.0 11.0 0.00 0.00 0.00 64 1009.2
20260505084556 54 223 6.0 11.0 0.00 0.00 0.00 64 1009.4
20260505083056 54 235 6.0 11.0 0.00 0.00 0.00 63 1009.4
20260505081557 54 218 7.0 13.0 0.00 0.00 0.00 63 1009.4
20260505080106 54 204 7.0 13.0 0.00 0.00 0.00 63 1009.6
20260505074555 55 234 10.0 16.0 0.00 0.00 0.00 63 1009.4
20260505073103 54 240 7.0 12.0 0.00 0.00 0.00 63 1009.4
20260505071600 55 241 6.0 10.0 0.00 0.00 0.00 62 1009.3
20260505070101 55 210 6.0 10.0 0.00 0.00 0.00 62 1009.3